FW3071 Weather Reports


time (UTC)temp
C
wind
direction
speed
KPH
gust
KPH
rain 1hr
cm
rain 24hr
cm
rain mn
cm
humidity
%
barometer
mb
20260507015021 26 88 11.3 19.3 0.00 0.00 0.00 91 1009.4
20260507014549 26 119 9.7 19.3 0.00 0.00 0.00 91 1009.2
20260507014021 26 89 11.3 19.3 0.00 0.00 0.00 91 1009.1
20260507013521 26 67 11.3 19.3 0.00 0.00 0.00 90 1009.1
20260507013049 26 85 11.3 19.3 0.00 0.00 0.00 90 1009.0
20260507012520 26 69 9.7 19.3 0.00 0.00 0.00 90 1009.0
20260507012019 26 88 6.4 14.5 0.00 0.00 0.00 90 1008.8
20260507011539 26 72 6.4 16.1 0.00 0.00 0.00 89 1008.8
20260507011019 26 68 4.8 16.1 0.00 0.00 0.00 89 1008.9
20260507010520 26 63 6.4 14.5 0.00 0.00 0.00 89 1008.8
20260507010046 26 62 4.8 16.1 0.00 0.00 0.00 89 1008.8
20260507005520 26 76 8.0 17.7 0.00 0.00 0.00 89 1008.8
20260507005019 26 76 9.7 17.7 0.00 0.00 0.00 88 1008.6
20260507004535 26 71 11.3 22.5 0.00 0.00 0.00 88 1008.5
20260507004019 26 101 12.9 22.5 0.00 0.00 0.00 88 1008.4
20260507003520 26 80 12.9 22.5 0.00 0.00 0.00 87 1008.3
20260507003036 27 109 11.3 22.5 0.00 0.00 0.00 87 1008.2
20260507002519 27 56 11.3 22.5 0.00 0.00 0.00 87 1008.2
20260507002020 27 87 16.1 24.1 0.00 0.00 0.00 86 1008.1
20260507001535 27 105 14.5 24.1 0.00 0.00 0.00 86 1008.0
20260507001019 27 107 14.5 24.1 0.00 0.00 0.00 85 1008.0
20260507000520 27 86 12.9 20.9 0.00 0.00 0.00 85 1008.0
20260507000036 27 78 11.3 22.5 0.00 0.00 0.00 85 1007.9
20260506235521 27 78 12.9 22.5 0.00 0.00 0.00 85 1007.9
20260506235019 27 74 14.5 22.5 0.00 0.00 0.00 84 1007.8
20260506234538 28 68 14.5 22.5 0.00 0.00 0.00 84 1007.8
20260506234021 28 90 12.9 22.5 0.00 0.00 0.00 84 1007.8
20260506233518 28 73 11.3 20.9 0.00 0.00 0.00 84 1007.9
20260506233053 28 97 12.9 20.9 0.00 0.00 0.00 84 1007.9
20260506232521 28 91 12.9 20.9 0.00 0.00 0.00 83 1007.9
20260506232018 28 67 12.9 22.5 0.00 0.00 0.00 83 1007.7
20260506231542 28 78 12.9 22.5 0.00 0.00 0.00 83 1007.6
20260506231022 28 97 14.5 22.5 0.00 0.00 0.00 83 1007.7
20260506230520 28 61 12.9 20.9 0.00 0.00 0.00 83 1007.7
20260506230040 28 91 11.3 19.3 0.00 0.00 0.00 83 1007.7
20260506225521 28 85 12.9 19.3 0.00 0.00 0.00 83 1007.7
20260506225020 28 75 11.3 20.9 0.00 0.00 0.00 83 1007.7
20260506224539 28 105 12.9 20.9 0.00 0.00 0.00 83 1007.7
20260506224021 28 109 12.9 20.9 0.00 0.00 0.00 83 1007.6
20260506223519 28 93 14.5 20.9 0.00 0.00 0.00 83 1007.7
20260506223036 28 100 12.9 20.9 0.00 0.00 0.00 82 1007.6
20260506222521 28 111 12.9 19.3 0.00 0.00 0.00 82 1007.6
20260506222023 28 75 11.3 19.3 0.00 0.00 0.00 81 1007.6
20260506221536 29 94 9.7 22.5 0.00 0.00 0.00 81 1007.6
20260506221019 29 105 12.9 22.5 0.00 0.00 0.00 80 1007.6
20260506220520 29 109 11.3 19.3 0.00 0.00 0.00 80 1007.7
20260506220043 30 107 9.7 20.9 0.00 0.00 0.00 79 1007.7
20260506215517 30 98 12.9 20.9 0.00 0.00 0.00 79 1007.7
20260506215020 30 99 11.3 20.9 0.00 0.00 0.00 77 1007.8
20260506214535 30 81 11.3 20.9 0.00 0.00 0.00 77 1007.7
20260506214020 31 94 12.9 22.5 0.00 0.00 0.00 77 1007.6
20260506213519 31 114 11.3 22.5 0.00 0.00 0.00 77 1007.6
20260506213040 31 92 11.3 22.5 0.00 0.00 0.00 76 1007.6
20260506212521 31 67 12.9 22.5 0.00 0.00 0.00 76 1007.6
20260506212020 31 81 14.5 22.5 0.00 0.00 0.00 74 1007.5
20260506211536 31 132 9.7 22.5 0.00 0.00 0.00 75 1007.5
20260506211021 32 101 12.9 22.5 0.00 0.00 0.00 74 1007.5
20260506210526 32 81 12.9 20.9 0.00 0.00 0.00 74 1007.6
20260506210037 32 99 14.5 20.9 0.00 0.00 0.00 75 1007.6
20260506205519 31 101 12.9 20.9 0.00 0.00 0.00 74 1007.6
20260506205024 31 118 16.1 20.9 0.00 0.00 0.00 75 1007.6
20260506204536 31 124 11.3 20.9 0.00 0.00 0.00 77 1007.6
20260506204022 31 128 12.9 20.9 0.00 0.00 0.00 76 1007.7
20260506203520 31 115 14.5 20.9 0.00 0.00 0.00 76 1007.8
20260506203042 31 101 12.9 20.9 0.00 0.00 0.00 77 1007.8
20260506202520 31 101 14.5 20.9 0.00 0.00 0.00 77 1007.9
20260506202020 31 114 14.5 22.5 0.00 0.00 0.00 77 1008.1
20260506201540 31 140 12.9 22.5 0.00 0.00 0.00 78 1008.2
20260506201022 31 134 12.9 22.5 0.00 0.00 0.00 78 1008.3
20260506200521 30 98 14.5 22.5 0.00 0.00 0.00 79 1008.3
20260506200044 30 152 14.5 22.5 0.00 0.00 0.00 78 1008.4
20260506195520 30 107 14.5 25.7 0.00 0.00 0.00 78 1008.5
20260506195019 30 141 14.5 25.7 0.00 0.00 0.00 78 1008.5
20260506194544 30 120 16.1 25.7 0.00 0.00 0.00 79 1008.5
20260506194018 30 123 14.5 24.1 0.00 0.00 0.00 80 1008.5
20260506193518 30 85 16.1 24.1 0.00 0.00 0.00 79 1008.7
20260506193034 30 132 16.1 24.1 0.00 0.00 0.00 80 1008.6
20260506192521 30 100 12.9 24.1 0.00 0.00 0.00 81 1008.8
20260506192020 29 109 14.5 24.1 0.00 0.00 0.00 82 1008.8
20260506191535 28 117 14.5 22.5 0.00 0.00 0.00 83 1008.9
20260506191021 28 109 12.9 22.5 0.00 0.00 0.00 83 1009.0
20260506190518 28 103 14.5 22.5 0.00 0.00 0.00 83 1009.1
20260506190040 28 124 12.9 22.5 0.00 0.00 0.00 84 1009.0
20260506185520 28 107 14.5 25.7 0.00 0.00 0.00 83 1009.1
20260506185032 28 121 14.5 25.7 0.00 0.00 0.00 83 1009.1
20260506184539 28 115 16.1 25.7 0.00 0.00 0.00 83 1009.1
20260506184021 28 142 14.5 20.9 0.00 0.00 0.00 83 1009.1
20260506183520 28 92 14.5 22.5 0.00 0.00 0.00 84 1009.1
20260506183037 28 128 16.1 24.1 0.00 0.00 0.00 83 1009.1
20260506182519 28 145 14.5 24.1 0.00 0.00 0.00 83 1009.2
20260506182021 28 116 14.5 20.9 0.00 0.00 0.00 82 1009.3
20260506181535 28 121 14.5 22.5 0.00 0.00 0.00 82 1009.3
20260506181023 28 134 14.5 25.7 0.00 0.00 0.00 82 1009.3
20260506180520 28 129 16.1 25.7 0.00 0.00 0.00 81 1009.4
20260506180040 29 121 12.9 24.1 0.00 0.00 0.00 80 1009.3
20260506175520 30 133 12.9 24.1 0.00 0.00 0.00 79 1009.3
20260506175021 30 161 11.3 19.3 0.00 0.00 0.00 78 1009.2
20260506174541 30 141 11.3 17.7 0.00 0.00 0.00 78 1009.2
20260506174021 30 137 9.7 19.3 0.00 0.00 0.00 77 1009.1
20260506173521 30 126 11.3 19.3 0.00 0.00 0.00 77 1009.1
20260506173045 31 136 11.3 17.7 0.00 0.00 0.00 78 1009.0
20260506172520 30 93 9.7 17.7 0.00 0.00 0.00 78 1009.0
20260506172021 30 155 8.0 19.3 0.00 0.00 0.00 80 1009.1
20260506171547 30 159 9.7 19.3 0.00 0.00 0.00 81 1009.1
20260506171026 29 158 11.3 25.7 0.00 0.00 0.00 83 1009.0
20260506170521 29 167 16.1 25.7 0.00 0.00 0.00 84 1009.1
20260506170044 28 132 16.1 24.1 0.00 0.00 0.00 86 1009.0
20260506165521 27 126 12.9 24.1 0.00 0.00 0.00 89 1009.1
20260506165023 27 155 11.3 17.7 0.00 0.00 0.00 90 1009.1
20260506164545 26 151 8.0 19.3 0.00 0.00 0.00 91 1009.2
20260506164022 26 161 9.7 25.7 0.00 0.00 0.00 91 1009.2
20260506163521 26 169 12.9 29.0 0.00 0.00 0.00 92 1009.2
20260506163043 26 179 14.5 29.0 0.00 0.00 0.00 92 1009.1
20260506162520 26 166 16.1 29.0 0.00 0.00 0.00 92 1009.1
20260506162022 26 155 16.1 27.4 0.00 0.00 0.00 93 1009.1
20260506161542 25 157 17.7 27.4 0.00 0.00 0.00 93 1009.1
20260506161022 25 150 14.5 24.1 0.00 0.00 0.00 93 1009.0
20260506160522 25 167 11.3 24.1 0.00 0.00 0.00 93 1009.0
20260506160047 25 159 14.5 22.5 0.00 0.00 0.00 93 1008.9
20260506155522 25 137 12.9 25.7 0.00 0.00 0.00 93 1008.9
20260506155022 25 159 17.7 25.7 0.00 0.00 0.00 93 1008.7
20260506154550 25 153 14.5 25.7 0.00 0.00 0.00 93 1008.6
20260506154018 25 148 16.1 25.7 0.00 0.00 0.00 93 1008.5
20260506153520 25 153 14.5 29.0 0.00 0.00 0.00 93 1008.6
20260506153036 25 144 16.1 30.6 0.00 0.00 0.00 93 1008.5
20260506152518 25 159 17.7 30.6 0.00 0.00 0.00 93 1008.5
20260506152019 25 157 16.1 25.7 0.00 0.00 0.00 93 1008.5
20260506151536 25 149 14.5 25.7 0.00 0.00 0.00 93 1008.5
20260506151018 25 154 16.1 25.7 0.00 0.00 0.00 93 1008.5
20260506150521 25 152 16.1 25.7 0.00 0.00 0.00 92 1008.5
20260506150036 25 160 14.5 27.4 0.00 0.00 0.00 92 1008.5
20260506145523 25 155 17.7 29.0 0.00 0.00 0.00 92 1008.5
20260506145018 26 158 20.9 29.0 0.00 0.00 0.00 92 1008.4
20260506144543 26 168 14.5 25.7 0.00 0.00 0.00 92 1008.5
20260506144021 26 115 12.9 25.7 0.00 0.00 0.00 92 1008.4
20260506143520 26 167 16.1 27.4 0.00 0.00 0.00 91 1008.4
20260506143039 26 146 16.1 27.4 0.00 0.00 0.00 91 1008.5
20260506142518 26 147 17.7 27.4 0.00 0.00 0.00 91 1008.5
20260506142017 26 156 17.7 25.7 0.00 0.00 0.00 91 1008.4
20260506141542 26 173 12.9 24.1 0.00 0.00 0.00 91 1008.5
20260506141020 26 162 16.1 27.4 0.00 0.00 0.00 91 1008.5
20260506140519 26 155 17.7 27.4 0.00 0.00 0.00 91 1008.3
20260506140035 25 137 17.7 27.4 0.00 0.00 0.00 91 1008.3
20260506135517 26 127 14.5 27.4 0.00 0.00 0.00 91 1008.3
20260506135019 26 136 17.7 29.0 0.00 0.00 0.00 91 1008.3
20260506134542 26 155 16.1 29.0 0.00 0.00 0.00 91 1008.2
20260506134020 26 130 19.3 27.4 0.00 0.00 0.00 91 1008.1
20260506133520 26 130 19.3 29.0 0.00 0.00 0.00 91 1008.1
20260506133040 26 128 14.5 30.6 0.00 0.00 0.00 91 1008.2
20260506132519 25 163 17.7 30.6 0.00 0.00 0.00 92 1008.2
20260506132020 25 123 17.7 27.4 0.00 0.00 0.00 92 1008.2
20260506131540 25 123 16.1 25.7 0.00 0.00 0.00 92 1008.3
20260506131021 25 124 12.9 19.3 0.00 0.00 0.00 92 1008.2
20260506130523 25 150 11.3 19.3 0.00 0.00 0.00 92 1008.1
20260506130039 25 130 9.7 20.9 0.00 0.00 0.00 92 1008.1
20260506125519 25 139 12.9 22.5 0.00 0.00 0.00 92 1008.0
20260506125022 25 132 12.9 22.5 0.00 0.00 0.00 92 1008.0
20260506124538 25 128 11.3 24.1 0.00 0.00 0.00 92 1008.0
20260506124020 25 130 14.5 24.1 0.00 0.00 0.00 92 1007.9
20260506123520 25 144 12.9 22.5 0.00 0.00 0.00 92 1007.8
20260506123040 25 136 11.3 17.7 0.00 0.00 0.00 92 1007.8
20260506122519 25 157 9.7 17.7 0.00 0.00 0.00 92 1007.7
20260506122019 25 132 11.3 17.7 0.00 0.00 0.00 92 1007.7
20260506121534 25 142 8.0 17.7 0.00 0.00 0.00 92 1007.7
20260506121020 25 140 11.3 19.3 0.00 0.00 0.00 92 1007.7
20260506120517 25 126 12.9 19.3 0.00 0.00 0.00 92 1007.6
20260506120105 25 132 11.3 20.9 0.00 0.00 0.00 92 1007.6
20260506115517 25 152 12.9 20.9 0.00 0.00 0.00 92 1007.6
20260506115019 25 107 12.9 20.9 0.00 0.00 0.00 92 1007.5
20260506114536 25 130 12.9 19.3 0.00 0.00 0.00 92 1007.5
20260506114020 25 144 12.9 17.7 0.00 0.00 0.00 92 1007.5
20260506113521 25 126 9.7 16.1 0.00 0.00 0.00 92 1007.4
20260506113036 25 153 11.3 16.1 0.00 0.00 0.00 92 1007.5
20260506112520 25 102 8.0 16.1 0.00 0.00 0.00 92 1007.5
20260506112020 25 136 8.0 14.5 0.00 0.00 0.00 92 1007.6
20260506111534 25 165 8.0 14.5 0.00 0.00 0.00 92 1007.5
20260506111019 25 85 8.0 14.5 0.00 0.00 0.00 92 1007.4
20260506110519 25 117 9.7 14.5 0.00 0.00 0.00 92 1007.5
20260506110035 25 124 6.4 16.1 0.00 0.00 0.00 92 1007.5
20260506105519 25 125 4.8 16.1 0.00 0.00 0.00 92 1007.5
20260506105020 25 129 11.3 16.1 0.00 0.00 0.00 92 1007.3
20260506104542 25 111 11.3 16.1 0.00 0.00 0.00 92 1007.2
20260506104017 25 119 8.0 14.5 0.00 0.00 0.00 92 1007.3
20260506103519 25 134 8.0 14.5 0.00 0.00 0.00 92 1007.4
20260506103038 25 143 8.0 14.5 0.00 0.00 0.00 92 1007.3
20260506102519 25 130 6.4 16.1 0.00 0.00 0.00 92 1007.1
20260506102019 25 136 9.7 16.1 0.00 0.00 0.00 92 1007.2
20260506101536 25 136 8.0 16.1 0.00 0.00 0.00 92 1007.2
20260506101020 25 157 8.0 16.1 0.00 0.00 0.00 92 1007.2
20260506100519 25 136 6.4 16.1 0.00 0.00 0.00 92 1007.3
20260506100035 25 132 8.0 16.1 0.00 0.00 0.00 92 1007.2
20260506095520 25 146 6.4 19.3 0.00 0.00 0.00 92 1007.2
20260506095018 25 136 12.9 19.3 0.00 0.00 0.00 92 1007.1
20260506094540 25 140 8.0 17.7 0.00 0.00 0.00 91 1007.3
20260506094018 25 118 11.3 19.3 0.00 0.00 0.00 91 1007.2
20260506093519 25 170 9.7 19.3 0.00 0.00 0.00 91 1007.1
20260506093044 25 161 9.7 20.9 0.00 0.00 0.00 91 1006.9
20260506092520 25 135 12.9 20.9 0.00 0.00 0.00 91 1007.0
20260506092020 25 146 14.5 20.9 0.00 0.00 0.00 91 1007.0
20260506091540 25 165 11.3 20.9 0.00 0.00 0.00 91 1006.9
20260506091019 25 142 12.9 22.5 0.00 0.00 0.00 91 1006.8
20260506090519 25 157 12.9 22.5 0.00 0.00 0.00 91 1006.7
20260506090042 25 147 12.9 25.7 0.00 0.00 0.00 91 1006.8
20260506085521 25 134 17.7 27.4 0.00 0.00 0.00 91 1006.8
20260506085021 25 134 11.3 27.4 0.00 0.00 0.00 91 1006.7
20260506084536 25 146 16.1 27.4 0.00 0.00 0.00 91 1006.7
20260506084020 25 138 14.5 24.1 0.00 0.00 0.00 91 1006.7
20260506083523 25 155 16.1 29.0 0.00 0.00 0.00 90 1006.8
20260506083042 25 136 16.1 30.6 0.00 0.00 0.00 90 1006.7
20260506082517 25 146 19.3 32.2 0.00 0.00 0.00 90 1006.6
20260506082020 25 159 20.9 32.2 0.00 0.00 0.00 90 1006.6
20260506081536 25 127 17.7 35.4 0.00 0.00 0.00 90 1006.8
20260506081019 25 140 19.3 35.4 0.00 0.00 0.00 90 1006.8
20260506080519 25 124 19.3 30.6 0.00 0.00 0.00 90 1006.8
20260506073520 25 142 20.9 32.2 0.00 0.00 0.00 89 1006.9
20260506073036 25 153 19.3 32.2 0.00 0.00 0.00 89 1007.2
20260506072520 25 159 17.7 32.2 0.00 0.00 0.00 89 1007.4
20260506072021 25 141 17.7 27.4 0.00 0.00 0.00 88 1007.4
20260506071547 25 155 17.7 32.2 0.00 0.00 0.00 88 1007.4
20260506071019 25 152 24.1 32.2 0.00 0.00 0.00 88 1007.6
20260506070519 25 161 19.3 33.8 0.00 0.00 0.00 88 1007.6
20260506062517 25 148 16.1 30.6 0.00 0.00 0.00 90 1008.1
20260506062020 25 128 19.3 30.6 0.00 0.00 0.00 90 1008.0
20260506061539 25 157 14.5 30.6 0.00 0.00 0.00 90 1007.9
20260506061021 25 144 17.7 35.4 0.00 0.00 0.00 91 1008.0
20260506060517 25 198 22.5 35.4 0.00 0.00 0.00 91 1008.0
20260506051019 25 132 20.9 33.8 0.00 0.00 0.00 90 1008.2
20260506050520 25 148 19.3 32.2 0.00 0.00 0.00 90 1008.2
20260506045018 25 148 16.1 29.0 0.00 0.00 0.00 90 1008.4
20260506044550 25 160 16.1 29.0 0.00 0.00 0.00 90 1008.5
20260506044019 25 140 17.7 32.2 0.00 0.00 0.00 90 1008.3
20260506043520 25 153 16.1 32.2 0.00 0.00 0.00 90 1008.3
20260506043036 25 153 20.9 30.6 0.00 0.00 0.00 90 1008.3
20260506042520 25 141 19.3 30.6 0.00 0.00 0.00 90 1008.4
20260506042020 25 111 22.5 30.6 0.00 0.00 0.00 90 1008.3
20260506041540 25 134 20.9 37.0 0.00 0.00 0.00 90 1008.2
20260506041019 25 126 20.9 37.0 0.00 0.00 0.00 90 1008.1
20260506040519 25 132 19.3 33.8 0.00 0.00 0.00 90 1008.1
20260506040041 25 142 20.9 33.8 0.00 0.00 0.00 90 1008.1
20260506035519 25 146 16.1 30.6 0.00 0.00 0.00 90 1008.0
20260506035019 25 125 19.3 35.4 0.00 0.00 0.00 90 1008.0
20260506034539 25 128 20.9 35.4 0.00 0.00 0.00 90 1008.0
20260506034020 25 159 20.9 33.8 0.00 0.00 0.00 90 1008.0
20260506033519 25 121 16.1 32.2 0.00 0.00 0.00 90 1007.8
20260506033039 25 158 17.7 40.2 0.00 0.00 0.00 90 1007.6
20260506032519 25 145 20.9 40.2 0.00 0.00 0.00 90 1007.4
20260506032020 25 161 20.9 37.0 0.00 0.00 0.00 90 1007.5
20260506031553 25 147 20.9 33.8 0.00 0.00 0.00 90 1007.6
20260506031020 25 123 19.3 32.2 0.00 0.00 0.00 90 1007.6
20260506030519 25 149 19.3 33.8 0.00 0.00 0.00 90 1007.7
20260506030043 25 150 22.5 33.8 0.00 0.00 0.00 90 1007.6
20260506025523 25 147 22.5 33.8 0.00 0.00 0.00 91 1007.5
20260506025019 25 131 20.9 32.2 0.00 0.00 0.00 91 1007.4
20260506024538 25 128 20.9 32.2 0.00 0.00 0.00 90 1007.5
20260506024019 25 155 20.9 35.4 0.00 0.00 0.00 90 1007.6
20260506023519 25 139 19.3 35.4 0.00 0.00 0.00 90 1007.4
20260506023040 25 138 20.9 41.8 0.00 0.00 0.00 90 1007.3
20260506022519 25 126 20.9 41.8 0.00 0.00 0.00 90 1007.2
20260506022019 25 142 16.1 37.0 0.00 0.00 0.00 90 1007.2
20260506021540 25 128 20.9 35.4 0.00 0.00 0.00 90 1007.1
20260506021018 25 135 20.9 35.4 0.00 0.00 0.00 90 1007.1
20260506020520 25 149 22.5 37.0 0.00 0.00 0.00 90 1006.9
20260506020036 25 122 20.9 37.0 0.00 0.00 0.00 90 1006.8
20260506015523 25 130 20.9 37.0 0.00 0.00 0.00 90 1006.8